Change the Weather History Date:

Tuesday, January 7, 2014

  Actual Average Record
Temperature  
Mean Temperature 15 °F 41 °F  
Max Temperature 25 °F 50 °F 70 °F (1946)
Min Temperature 5 °F 33 °F 5 °F (2014)
Degree Days  
Heating Degree Days 50 24  
Month to date heating degree days 243 168  
Since 1 July heating degree days 1438 1364  
Moisture  
Dew Point -2 °F    
Average Humidity 48    
Maximum Humidity 63    
Minimum Humidity 32    
Precipitation  
Precipitation 0.00 in 0.15 in 2.45 in (1998)
Month to date precipitation 0.44 0.92  
Year to date precipitation 0.44 0.92  
Snow  
Snow 0.00 in - - ()
Month to date snowfall T  
Since 1 July snowfall T  
Snow Depth 0.00 in    
Sea Level Pressure  
Sea Level Pressure 30.46 in    
Wind  
Wind Speed 10 mph (West)    
Max Wind Speed 20 mph    
Max Gust Speed 28 mph    
Visibility 10 miles    
Events      
T = Trace of Precipitation, MM = Missing Value Source: NWS Daily Summary

Daily Weather History Graph

Daily Weather History Graph

Search for Another Location

Airport or City:

Trip Planner

Search our weather history database for the weather conditions in past years. The results will help you decide how hot, cold, wet, or windy it might be!

Date:

Astronomy

Jan. 07, 2014 Rise Set
Actual Time 7:42 AM EST 5:41 PM EST
Civil Twilight 7:14 AM EST 6:09 PM EST
Nautical Twilight 6:43 AM EST 6:40 PM EST
Astronomical Twilight 6:13 AM EST 7:10 PM EST
Moon 11:49 AM EST (1/7) No Moon Set
Length of Visible Light 10h 54m
Length of Day
9h 59m
Waxing Crescent, 45% of the Moon is Illuminated
Jan 7
Waxing Crescent
Jan 7
First Quarter
Jan 15
Full
Jan 24
Last Quarter
Jan 30
New

Hourly Weather History & Observations

Time (EST) Temp. Windchill Dew Point Humidity Pressure Visibility Wind Dir Wind Speed Gust Speed Precip Events Conditions
12:53 AM 8.1 °F -10.2 °F -5.1 °F 55% 30.39 in 10.0 mi WNW 17.3 mph 26.5 mph N/A   Clear
1:53 AM 8.1 °F -7.7 °F -4.0 °F 58% 30.39 in 10.0 mi WNW 12.7 mph 20.7 mph N/A   Clear
2:53 AM 7.0 °F -9.1 °F -4.0 °F 61% 30.40 in 10.0 mi WNW 12.7 mph 20.7 mph N/A   Clear
3:53 AM 6.1 °F -7.8 °F -4.0 °F 63% 30.41 in 10.0 mi West 9.2 mph - N/A   Clear
4:53 AM 6.1 °F -7.8 °F -5.1 °F 60% 30.40 in 10.0 mi West 9.2 mph - N/A   Clear
5:53 AM 6.1 °F -7.8 °F -4.0 °F 63% 30.41 in 10.0 mi West 9.2 mph - N/A   Clear
6:53 AM 6.1 °F -6.8 °F -5.1 °F 60% 30.43 in 10.0 mi WNW 8.1 mph - N/A   Clear
7:53 AM 6.1 °F -9.5 °F -7.1 °F 55% 30.47 in 10.0 mi WNW 11.5 mph - N/A   Clear
8:53 AM 8.1 °F -5.3 °F -4.0 °F 58% 30.49 in 10.0 mi NW 9.2 mph - N/A   Clear
9:53 AM 10.9 °F -1.8 °F -6.0 °F 47% 30.51 in 10.0 mi NW 9.2 mph - N/A   Clear
10:53 AM 17.1 °F 5.8 °F -7.1 °F 34% 30.49 in 10.0 mi NW 9.2 mph - N/A   Clear
11:53 AM 18.0 °F 7.7 °F -4.0 °F 38% 30.47 in 10.0 mi West 8.1 mph - N/A   Clear
12:53 PM 21.9 °F 14.5 °F -4.0 °F 32% 30.43 in 10.0 mi WNW 5.8 mph - N/A   Clear
1:53 PM 24.1 °F 14.4 °F -2.9 °F 31% 30.43 in 10.0 mi WSW 9.2 mph 16.1 mph N/A   Clear
2:53 PM 24.1 °F 13.7 °F -0.9 °F 34% 30.43 in 10.0 mi West 10.4 mph - N/A   Clear
3:53 PM 24.1 °F 14.4 °F -0.0 °F 35% 30.43 in 10.0 mi West 9.2 mph - N/A   Clear
4:53 PM 23.0 °F 11.7 °F 1.0 °F 39% 30.46 in 10.0 mi West 11.5 mph - N/A   Clear
5:53 PM 19.9 °F 10.1 °F 1.9 °F 46% 30.48 in 10.0 mi WSW 8.1 mph - N/A   Clear
6:53 PM 19.0 °F 8.2 °F 1.9 °F 47% 30.48 in 10.0 mi West 9.2 mph - N/A   Clear
7:53 PM 18.0 °F 5.4 °F -0.0 °F 45% 30.51 in 10.0 mi West 11.5 mph - N/A   Clear
8:53 PM 18.0 °F 6.9 °F 1.0 °F 48% 30.51 in 10.0 mi West 9.2 mph - N/A   Clear
9:53 PM 17.1 °F 8.7 °F 1.9 °F 52% 30.51 in 10.0 mi West 5.8 mph - N/A   Clear
10:53 PM 17.1 °F 7.6 °F 1.0 °F 50% 30.50 in 10.0 mi West 6.9 mph - N/A   Clear
11:53 PM 17.1 °F 8.7 °F 1.9 °F 52% 30.50 in 10.0 mi West 5.8 mph - N/A   Clear